Theta_e
331 327 323 317 305 301 294 297 303 304 305 310 314 312 315 317 316 309 331 340 341 342 344 344 346 347 346 345 345 345 343 342 342 344 342 341 340 339 339 339 337 338 337 335 335 335 335 334 333
327 327 318 311 301 295 293 299 301 307 311 313 312 313 313 314 325 327 332 341 342 343 344 344 344 347 345 344 345 345 344 341 339 341 340 340 339 338 339 336 338 337 335 335 334 335 335 334 334
323 325 311 304 298 295 295 299 306 309 309 307 306 313 315 316 326 328 337 341 342 342 343 343 344 347 345 345 344 344 345 343 339 339 337 335 336 338 337 338 338 335 335 337 338 334 333 333 333
316 317 310 298 295 299 300 303 309 308 308 310 308 311 319 326 328 332 339 341 340 341 342 342 345 346 344 345 343 345 344 343 342 340 336 335 335 337 335 335 338 337 335 336 335 335 335 333 332
316 311 301 297 298 299 303 309 310 308 308 308 308 308 316 328 333 334 337 339 340 340 342 343 343 344 344 345 343 344 342 343 342 342 339 338 337 335 336 337 339 336 335 332 334 334 333 333 332
310 308 299 295 297 301 305 309 309 306 308 309 311 312 317 329 331 332 334 339 341 339 342 342 337 339 342 343 343 342 341 344 342 341 340 338 336 336 334 337 337 336 334 330 329 333 332 331 333
309 305 300 301 302 301 305 309 306 307 307 307 312 311 318 325 331 333 333 340 340 342 341 339 339 337 335 338 338 339 339 339 339 340 340 338 337 336 336 336 336 336 335 332 331 333 331 330 329
309 306 302 301 302 301 307 308 310 308 307 312 316 310 312 323 332 332 332 339 339 339 340 339 337 337 336 335 332 333 335 334 335 334 334 332 332 333 332 330 333 336 335 331 331 332 331 330 329
309 301 298 301 302 304 307 307 310 312 310 312 316 317 320 329 331 329 329 332 334 337 338 340 336 335 334 333 331 329 330 331 330 330 329 327 327 326 327 327 330 333 331 331 331 330 332 331 329
301 296 300 306 307 306 308 308 309 309 308 310 317 323 328 329 328 326 326 327 329 330 332 336 338 335 335 336 331 330 331 329 329 327 329 329 327 325 326 323 326 330 328 330 331 331 330 327 323
302 296 300 304 312 312 308 307 309 307 305 310 314 320 324 325 326 326 326 327 329 330 331 333 334 337 336 335 332 329 328 327 326 327 326 327 327 324 324 322 322 323 321 323 325 323 325 324 322
297 302 302 307 311 311 308 311 307 307 307 313 318 324 324 324 325 326 326 326 329 329 331 332 333 334 335 336 334 332 330 328 325 326 327 325 324 322 321 321 320 320 321 320 321 321 323 323 323
298 300 304 306 309 308 310 307 307 308 310 315 319 322 323 324 324 325 327 327 328 329 331 332 332 332 334 333 335 334 333 331 330 327 327 327 324 323 322 321 320 321 320 320 319 320 321 322 322
300 302 302 303 306 307 304 304 304 309 312 311 317 317 320 322 324 323 325 326 327 330 331 332 332 332 334 335 333 333 333 333 333 330 328 328 326 324 323 321 320 319 320 320 320 319 319 319 319
301 297 298 299 302 302 304 299 300 305 305 309 311 312 314 317 321 322 323 324 326 329 331 332 333 333 332 333 334 334 334 334 332 332 332 329 327 325 324 322 321 320 319 319 318 317 317 316 317
296 295 288 295 301 303 301 292 299 304 302 302 303 307 311 313 315 318 322 324 325 326 328 332 335 333 333 332 332 334 335 334 333 332 330 329 329 326 324 322 322 321 319 318 316 316 315 315 315
291 283 287 290 298 300 298 292 298 299 300 301 300 302 304 310 313 315 317 321 323 325 326 327 332 332 332 332 331 332 333 334 334 334 332 331 330 329 327 323 322 322 320 318 317 316 315 314 315
285 286 287 286 292 297 296 294 298 300 297 296 296 298 300 302 304 308 315 317 319 320 320 324 326 330 332 332 331 331 331 333 334 331 332 332 332 332 329 327 323 323 320 319 317 316 316 316 316
289 287 286 287 292 293 293 293 295 298 297 296 297 297 298 299 303 304 308 311 312 311 312 314 319 323 326 325 328 328 329 331 332 331 330 331 332 332 331 329 327 324 322 321 319 318 316 316 316
292 286 284 288 293 290 288 289 292 293 294 296 297 297 298 299 300 302 305 307 309 310 311 310 309 309 317 323 325 325 326 326 331 331 331 331 330 331 331 331 329 327 325 324 323 322 321 320 321
290 286 285 285 288 288 286 284 287 292 295 296 295 297 299 300 300 300 301 304 305 306 308 309 309 308 308 317 321 322 323 323 324 325 326 329 330 330 331 331 331 329 328 326 325 324 322 320 321
284 290 290 288 283 277 285 275 282 286 289 292 294 293 296 297 298 300 299 299 301 306 307 309 310 310 310 310 313 318 320 320 320 323 325 326 328 328 331 330 330 330 329 327 326 326 325 323 321
286 291 289 288 284 281 280 278 280 285 284 286 290 293 295 296 297 298 299 302 305 308 310 311 311 312 313 312 310 314 316 319 320 321 323 324 326 330 330 330 330 329 329 328 327 325 324 325 323
292 289 288 287 284 276 282 280 280 284 285 287 291 293 295 297 296 299 302 305 305 306 307 307 307 305 306 306 310 313 312 316 317 318 320 322 318 312 311 314 321 327 327 327 326 326 324 324 324
290 285 273 272 272 273 282 280 284 286 287 288 289 292 294 296 297 299 300 301 302 303 303 302 301 299 300 300 301 303 304 306 307 307 308 306 305 303 304 306 306 308 309 312 315 321 322 322 322
287 285 277 270 272 276 283 277 282 291 294 293 292 293 294 294 298 297 298 298 298 299 298 297 297 296 296 296 297 298 299 299 298 298 298 299 299 299 300 301 302 303 304 305 308 308 306 309 316
286 284 287 281 277 275 278 281 287 290 291 291 291 292 292 295 296 296 295 294 294 294 294 294 294 294 294 294 294 294 295 295 295 296 296 296 297 297 297 298 298 298 299 299 302 301 300 302 302
289 291 282 282 268 266 276 276 279 284 287 290 290 291 293 294 294 294 293 292 291 291 290 291 291 291 292 292 291 291 293 293 293 293 293 293 293 293 293 294 294 294 294 296 296 295 294 295 296
287 286 286 285 280 274 272 275 284 287 289 289 291 292 294 294 293 292 291 290 289 288 288 288 289 289 290 289 288 288 288 289 289 289 289 290 290 290 290 291 291 291 291 290 290 291 290 291 292
290 287 287 281 278 281 279 277 288 289 291 290 290 291 293 294 292 290 289 288 287 286 285 285 286 287 287 286 285 285 286 286 285 285 285 286 285 287 287 288 288 288 287 287 287 287 288 287 288
Wind_Speed
10 10 1 4 5 5 2 1 4 4 4 2 2 7 9 4 3 5 3 15 17 13 11 11 13 13 13 13 12 13 12 11 10 11 13 13 12 11 11 11 12 10 14 14 14 14 13 13 11
8 6 4 2 4 3 3 4 6 5 4 5 6 5 6 3 4 6 9 15 16 13 10 10 12 13 13 12 10 11 13 12 10 9 11 12 11 10 8 10 11 11 12 11 13 13 12 12 10
11 4 4 4 0 5 4 4 8 5 3 2 3 5 4 3 4 6 14 17 15 12 11 10 12 13 12 11 9 7 12 13 11 9 10 9 9 10 8 10 13 9 11 12 13 13 10 9 8
5 6 5 5 1 6 8 6 9 7 3 3 5 7 4 3 10 8 17 17 14 13 11 11 12 12 12 11 10 10 8 14 12 12 10 10 10 8 9 9 12 10 9 11 11 10 8 6 6
4 3 3 2 3 2 5 10 9 6 7 4 5 3 4 4 10 10 16 14 14 12 12 11 12 11 10 11 10 9 7 8 14 13 11 9 8 8 4 8 9 8 9 6 10 9 6 4 3
4 3 3 2 2 4 5 8 8 5 7 6 7 6 2 7 8 7 11 13 12 12 12 10 10 11 10 10 9 9 7 8 11 13 14 12 10 7 5 6 7 9 8 6 5 7 5 4 3
3 3 3 3 3 3 6 8 7 8 6 3 9 6 5 5 8 7 10 15 12 12 11 8 7 8 9 9 9 9 8 7 7 9 11 14 12 7 4 2 4 7 6 5 4 7 4 2 2
3 3 3 3 5 4 6 4 5 6 2 1 6 6 6 6 10 8 9 13 12 10 10 10 7 6 5 6 9 8 8 7 8 8 7 9 10 9 7 4 3 6 6 6 5 5 3 2 1
3 4 3 4 2 5 5 5 3 2 6 4 3 6 9 12 10 7 7 6 7 9 10 10 9 8 7 6 7 8 8 8 8 7 8 7 4 7 8 7 7 4 6 7 7 7 6 4 4
4 3 7 1 4 4 6 6 7 5 5 4 7 7 10 10 9 8 8 10 7 8 6 8 11 9 8 7 6 6 6 4 5 5 6 4 6 5 6 7 9 9 8 8 8 8 8 6 3
3 5 1 6 4 6 2 5 3 8 4 8 14 13 10 7 7 8 8 9 11 8 6 6 7 10 9 6 5 3 3 3 4 6 6 5 4 3 4 3 3 4 6 3 5 4 3 5 4
1 5 3 4 4 3 3 7 3 4 3 5 14 16 11 10 10 10 9 8 10 9 9 7 7 5 7 5 5 6 5 5 4 6 7 5 3 4 4 4 5 4 3 5 4 3 5 6 6
3 5 3 1 5 3 4 4 2 5 5 7 14 13 13 12 11 9 10 9 9 11 11 10 8 7 6 5 5 5 6 6 7 6 7 6 5 4 4 4 4 4 4 4 5 5 5 5 6
2 2 7 1 3 3 2 3 5 5 6 5 15 11 11 14 14 9 10 11 11 12 13 13 13 9 8 10 6 5 5 5 6 6 6 8 6 5 5 5 5 4 5 5 5 5 5 5 5
4 3 6 3 4 3 5 6 11 9 7 4 8 10 11 11 10 12 12 10 11 10 12 15 15 13 11 11 9 7 6 6 4 5 8 9 7 6 6 5 5 5 5 6 4 4 3 3 3
5 3 1 5 8 4 9 8 6 10 8 11 8 8 8 10 9 10 10 10 9 9 10 12 12 14 13 11 9 7 6 5 6 5 4 7 9 8 6 5 5 5 4 4 4 4 4 4 4
1 3 5 7 7 6 7 7 7 4 8 14 9 8 9 8 8 9 11 11 11 11 10 11 12 14 14 11 8 8 9 8 5 6 5 6 6 9 9 5 5 5 4 4 4 4 4 4 5
7 5 5 6 4 8 6 11 9 8 3 8 8 7 7 8 11 10 10 9 10 9 8 9 9 12 13 10 8 6 6 8 8 6 7 8 6 6 7 6 5 5 4 4 3 5 4 4 5
4 4 6 4 5 6 12 9 9 10 8 9 9 8 7 7 8 7 8 9 7 6 8 9 9 8 7 4 6 5 8 7 7 7 7 9 10 11 9 6 7 6 7 7 6 4 6 4 3
11 4 4 5 2 3 4 11 9 8 9 10 10 10 10 7 7 7 6 9 9 9 9 8 8 8 6 5 5 5 5 4 7 8 8 10 10 9 10 9 7 9 7 8 8 8 5 5 6
11 8 4 6 3 2 2 12 8 10 17 17 11 9 10 14 12 9 8 8 6 7 8 8 9 8 6 8 3 1 2 1 2 3 4 7 10 10 10 10 8 8 8 8 9 7 9 7 4
7 7 6 2 3 4 3 9 6 6 10 9 16 10 11 11 7 7 7 6 6 4 5 6 4 3 2 2 3 7 7 7 4 4 4 5 8 8 9 8 6 7 7 9 7 6 9 7 8
6 3 5 3 2 2 2 3 8 7 6 8 11 15 14 11 12 9 8 8 6 5 4 3 3 7 6 2 1 4 5 4 4 3 5 5 5 7 3 3 5 6 5 6 7 5 8 7 7
5 6 6 5 4 6 9 7 9 8 8 7 8 10 17 13 5 7 6 8 6 5 7 7 8 6 7 7 6 2 3 3 3 2 2 3 6 5 8 8 6 3 3 4 5 7 7 7 7
6 9 2 3 1 9 6 11 19 6 7 6 7 10 8 8 9 9 9 7 6 7 7 6 7 6 6 7 7 6 6 7 7 5 5 6 4 5 7 8 7 6 7 8 7 5 3 4 4
14 10 7 10 7 5 8 13 8 15 19 11 10 8 10 8 10 8 8 8 8 7 7 7 7 7 6 6 7 6 7 6 6 7 7 6 7 6 7 6 6 6 7 7 5 5 6 10 6
7 14 8 3 2 2 6 7 8 4 7 6 9 10 10 8 10 11 8 8 8 7 7 7 7 6 6 6 6 7 8 9 9 9 9 7 7 7 7 7 8 9 7 9 7 6 8 7 7
13 11 12 4 3 5 6 5 8 3 7 6 7 7 7 8 9 8 8 9 7 8 7 8 7 7 6 7 6 7 8 9 9 9 9 8 7 7 7 8 8 9 9 8 8 8 8 8 7
11 11 6 6 5 6 3 9 9 17 11 11 10 10 13 12 11 10 9 8 8 8 7 7 6 7 7 7 7 8 8 9 9 9 8 8 8 8 8 8 8 8 9 10 8 7 8 8 7
22 19 23 10 15 13 5 9 4 9 8 6 9 6 6 8 10 9 10 10 9 8 7 7 6 7 6 7 8 8 9 9 9 9 8 7 7 6 6 6 7 8 10 9 10 9 9 9 9
Wind_Direction
313 303 265 53 48 73 212 65 124 92 46 57 86 84 107 67 37 145 107 121 128 132 137 132 133 131 129 126 120 116 112 107 104 103 110 104 92 93 103 97 93 88 87 91 79 77 77 72 64
308 307 44 98 102 87 271 141 97 114 146 97 51 105 51 91 87 125 104 130 129 135 136 137 135 134 136 136 137 139 132 114 108 110 108 100 100 101 100 95 84 79 84 89 88 79 79 74 58
305 190 87 117 58 159 153 136 134 121 111 93 92 75 91 82 106 132 130 132 133 137 138 141 139 141 142 137 132 149 132 121 119 116 110 112 113 117 109 102 103 85 84 78 75 96 84 78 63
338 357 10 87 268 325 127 160 130 123 60 43 106 76 58 338 147 150 142 138 138 140 139 141 142 145 146 140 130 124 131 139 141 122 123 125 122 124 121 126 106 110 104 102 94 71 83 86 80
16 63 14 55 72 96 110 144 144 148 150 181 112 118 86 26 109 132 140 136 129 134 138 143 145 146 148 148 141 131 128 156 143 142 133 114 113 133 120 135 127 121 120 109 96 97 94 88 97
3 79 45 300 198 181 119 155 135 129 160 120 99 108 117 144 119 151 124 134 132 137 141 143 150 150 154 153 150 146 134 130 154 145 143 142 140 134 161 139 154 141 135 148 142 120 105 87 80
72 61 234 296 183 86 152 141 126 147 139 149 173 91 159 143 158 153 123 136 133 138 136 139 153 156 156 159 158 158 151 142 164 147 162 146 141 153 151 148 160 139 159 163 169 140 136 126 90
90 86 301 266 175 189 176 101 88 103 168 120 132 152 177 189 155 153 130 137 140 136 146 156 156 156 161 164 163 164 166 154 156 149 161 148 150 154 163 153 182 191 169 194 209 189 172 218 242
25 63 266 266 200 183 183 118 68 124 110 53 30 140 150 149 139 140 123 123 139 149 158 163 166 170 173 178 175 171 173 169 164 154 161 167 171 166 174 181 198 223 197 206 215 222 191 220 259
100 136 222 359 12 158 173 123 146 117 123 69 75 58 118 136 149 159 158 153 161 163 171 172 171 176 177 181 169 173 176 180 177 177 176 181 191 189 186 189 192 194 196 205 216 224 205 213 228
203 200 317 12 28 27 136 115 199 128 191 185 165 157 149 150 160 167 175 169 176 176 164 176 178 176 178 174 167 171 173 176 192 193 189 196 202 197 188 181 182 182 198 211 213 235 210 215 223
267 266 265 333 22 44 27 295 121 157 183 204 162 158 153 166 181 181 189 186 168 175 186 185 184 190 182 173 173 179 179 183 192 201 191 185 207 186 185 170 186 191 194 204 215 219 225 228 231
215 267 309 37 97 67 23 347 359 268 169 119 141 154 168 175 187 192 192 192 171 183 188 193 187 189 190 194 181 190 187 191 196 198 197 188 192 193 192 194 187 200 193 199 209 215 222 228 237
194 71 303 317 204 114 121 287 32 267 164 151 152 173 182 185 192 189 193 199 193 185 187 185 192 192 199 210 206 210 209 196 187 192 197 193 190 191 191 199 205 201 197 199 202 207 209 220 218
99 29 343 274 232 187 136 305 233 242 290 246 195 182 183 201 195 192 189 191 180 189 181 184 187 189 191 202 213 223 219 223 217 199 193 194 194 196 194 201 207 209 200 205 211 232 229 238 248
105 65 138 278 172 217 112 255 260 231 239 250 229 226 225 205 196 196 194 186 182 174 179 181 186 189 190 192 194 207 218 221 222 222 203 190 200 192 195 200 210 208 202 195 194 203 224 233 235
102 182 196 284 220 174 154 249 246 264 222 242 237 233 216 238 236 213 194 189 187 186 183 183 183 183 189 191 190 197 207 221 221 205 198 195 190 203 202 201 208 201 200 203 201 208 186 212 238
181 196 220 213 252 180 194 238 271 279 333 265 237 236 250 241 233 223 214 195 187 187 185 191 184 178 185 184 187 197 206 217 220 216 206 190 207 194 210 210 202 196 198 211 199 205 209 201 220
130 167 221 261 247 159 217 232 238 268 293 262 255 251 245 241 248 236 207 196 196 193 184 180 172 195 166 165 183 200 208 212 213 213 201 202 212 208 215 208 211 198 208 212 202 193 208 235 219
249 222 244 289 44 120 295 273 256 242 248 236 234 238 235 247 262 262 229 179 175 181 193 183 179 181 191 195 193 186 174 192 198 203 200 200 204 213 203 215 209 211 217 214 211 205 221 227 204
224 209 205 209 31 332 355 279 238 245 236 238 220 218 218 222 229 239 231 236 213 206 206 199 195 196 197 197 193 170 101 36 147 191 192 193 201 204 203 205 212 206 211 224 226 207 211 239 218
225 180 190 243 83 232 104 281 258 266 249 237 240 225 223 214 215 218 216 194 139 122 100 107 113 160 213 253 204 191 197 204 200 190 193 197 190 199 212 205 201 205 211 221 218 211 221 220 241
215 150 195 178 180 73 257 330 278 266 272 251 235 225 228 221 213 209 214 140 129 118 89 57 55 44 17 347 286 217 207 194 185 178 201 220 200 194 183 204 204 206 205 219 215 202 210 218 228
167 79 52 51 92 267 206 192 244 217 216 240 227 221 215 218 189 140 115 110 108 93 79 74 78 49 33 36 34 55 216 205 161 133 147 93 66 71 44 34 14 323 260 220 220 214 211 218 223
134 131 39 14 316 234 215 207 245 235 263 231 238 223 223 210 143 150 138 116 94 75 75 77 75 59 49 53 51 55 68 78 90 79 78 73 70 56 49 47 40 40 29 28 18 4 296 254 244
187 171 157 188 197 235 182 229 253 222 236 228 205 205 197 200 160 144 131 117 105 92 87 87 82 76 63 59 61 59 58 64 68 71 77 81 77 66 56 59 58 51 45 36 26 40 22 3 9
175 207 174 89 7 84 221 293 306 209 205 193 196 179 190 139 133 139 131 117 111 102 97 98 92 83 73 69 61 66 72 75 75 71 72 68 63 70 53 46 51 45 35 39 30 30 31 30 8
180 165 203 187 187 254 256 250 236 253 233 199 195 187 130 139 146 141 132 128 117 110 104 91 87 87 81 73 71 74 79 81 79 75 73 71 66 67 60 53 52 47 43 36 39 48 29 34 25
197 198 198 168 182 195 239 250 206 211 213 203 205 196 169 168 156 154 146 130 126 118 114 111 103 100 85 76 70 71 68 70 70 68 63 64 66 63 62 63 62 55 54 43 43 44 35 39 34
206 200 199 192 212 224 262 254 345 133 114 118 237 258 162 168 160 145 138 137 131 125 117 109 99 91 88 82 76 73 76 75 76 72 63 55 56 41 46 57 63 63 63 52 48 43 32 28 25